#timestamp,LO_Frequency,Hit,StdDev 
1503136815.1,286047000.6,N,0.9
1503136816.0,286047000.6,N,0.9
1503136835.8,286047000.7,N,0.9
1503136855.6,286047000.9,N,0.8
1503136875.5,286047002.8,Y,0.0
1503136895.3,286047000.8,P,0.3
1503136915.2,286047000.0,N,0.3
1503136935.0,286047000.1,N,0.3
1503136935.9,286047000.1,N,0.3
1503136955.7,286047000.8,N,0.3
1503136975.6,286047000.8,N,0.4
1503136995.4,286047000.1,N,0.3
1503137015.3,286047000.3,N,0.3
1503137035.1,286047000.0,N,0.3
1503137036.0,286047000.0,N,0.3
1503137055.8,286047001.0,Y,0.0
1503137075.7,286047000.0,P,0.1
1503137095.5,286047000.5,P,0.2
1503137115.4,286047000.8,P,0.3
1503137135.2,286047000.8,N,0.3
1503137155.0,286047000.6,N,0.3
1503137155.9,286047000.6,N,0.3
1503137175.8,286047000.3,N,0.3
1503137195.6,286047000.5,N,0.2
1503137215.5,286047000.1,N,0.3
1503137235.3,286047000.1,N,0.3
1503137255.1,286046999.8,N,0.3
1503137275.9,286046999.7,N,0.3
1503137295.7,286046999.8,N,0.4
1503137315.5,286046999.9,N,0.4
1503137335.4,286047000.4,N,0.3
1503137355.2,286047002.3,Y,0.0
1503137375.1,286047000.7,P,0.2
1503137376.0,286047000.7,P,0.2
1503137395.8,286047000.5,N,0.2
1503137415.6,286047000.2,N,0.2
1503137435.5,286046999.8,N,0.3
1503137455.3,286046999.7,N,0.4
1503137475.2,286047002.3,Y,0.0
1503137495.0,286046999.8,P,0.2
1503137495.9,286046999.8,N,0.2
1503137515.7,286046999.9,N,0.2
1503137535.6,286047000.5,N,0.3
1503137555.4,286047002.8,Y,0.0
1503137575.3,286046999.9,P,0.1
1503137595.1,286047000.3,P,0.2
1503137615.8,286046999.9,N,0.2
1503137635.7,286047000.1,N,0.1
1503137655.5,286046999.9,N,0.1
1503137675.4,286046999.8,N,0.2
1503137695.2,286047000.0,N,0.1
1503137715.0,286047000.9,Y,0.0
1503137715.9,286047000.9,P,0.5
1503137735.8,286047000.0,N,0.4
1503137755.6,286046999.7,N,0.5
1503137775.5,286047000.6,N,0.4
1503137795.3,286047000.5,N,0.4
1503137815.1,286046999.8,N,0.4
1503137835.9,286047000.8,N,0.4
1503137855.7,286047000.4,N,0.4
1503137875.5,286047000.5,N,0.4
1503137895.4,286047000.3,N,0.4
1503137915.2,286047000.4,N,0.4
1503137935.1,286046999.7,N,0.4
1503137936.0,286046999.7,N,0.4
1503137955.8,286046999.8,N,0.4
1503137975.6,286047000.2,N,0.4
1503137995.5,286047000.1,N,0.4
1503138015.3,286047000.4,N,0.4
1503138035.2,286047000.2,N,0.4
1503138055.9,286047000.0,N,0.4
1503138075.7,286047002.7,Y,0.0
1503138095.6,286047000.2,P,0.0
1503138115.4,286047000.3,P,0.0
1503138135.3,286047000.9,P,0.3
1503138155.1,286047000.6,N,0.3
1503138156.0,286047000.6,N,0.3
1503138175.8,286047000.0,N,0.3
1503138195.7,286047002.7,Y,0.0
1503138215.5,286046999.7,P,0.3
1503138235.3,286047001.1,P,0.6
1503138255.2,286047000.0,N,0.5
1503138275.0,286046999.9,N,0.5
1503138275.9,286046999.9,N,0.5
1503138295.8,286047000.3,N,0.4
1503138315.6,286047000.2,N,0.4
1503138335.4,286047001.0,N,0.5
1503138355.3,286042725.2,Y,0.0
1503138375.1,286047000.9,P,0.3
1503138395.9,286047001.1,P,0.4
1503138415.7,286047000.0,N,0.4
1503138435.5,286047000.0,N,0.5
1503138455.4,286047001.1,N,0.5
1503138475.2,286047000.8,N,0.5
1503138495.0,286047001.1,N,0.5
1503138495.9,286047001.1,N,0.5
1503138515.8,286047000.3,N,0.4
1503138535.6,286047000.1,N,0.5
1503138555.5,286047000.4,N,0.4
1503138575.3,286047000.7,N,0.4
1503138595.1,286047000.0,N,0.4
1503138615.9,286046999.8,N,0.5
1503138635.7,286047002.8,Y,0.0
1503138655.5,286046999.9,P,0.3
1503138675.4,286046999.7,N,0.3
1503138695.2,286047002.6,P,1.1
1503138715.1,286047002.7,N,1.3
1503138716.0,286047002.7,N,1.3
1503138735.8,286046999.8,N,1.4
1503138755.6,286047000.7,N,1.3
1503138775.5,286047000.4,N,1.2
1503138795.3,286047000.2,N,1.2
1503138815.1,286046999.9,N,1.2
1503138835.9,286047000.6,N,1.1
1503138855.7,286047001.2,N,1.1
1503138875.6,286047001.2,N,1.0
1503138895.4,286047001.1,N,1.0
1503138915.2,286046998.2,N,1.2
1503138935.1,286046998.9,N,1.2
1503138936.0,286046998.9,N,1.2
1503138955.8,286046998.8,N,1.3
1503138975.6,286046998.4,N,1.3
1503138995.5,286046998.3,N,1.4
1503139015.3,286046998.5,N,1.4
1503139035.2,286046999.2,N,1.4
1503139055.9,286046998.9,N,1.3
1503139075.7,286046999.0,N,1.3
1503139095.6,286046999.0,N,1.3
1503139115.4,286046998.4,N,1.3
1503139135.2,286046999.2,N,1.3
1503139155.1,286046997.8,N,1.3
1503139156.0,286046997.8,N,1.4
1503139175.8,286046995.1,Y,0.0
1503139195.7,286046997.8,P,1.0
1503139215.5,286046995.2,P,1.9
1503139235.3,286046997.8,N,1.6
1503139255.2,286046997.9,N,1.5
1503139275.0,286046997.9,N,1.3
1503139275.9,286046997.9,N,1.2
1503139295.7,286046995.3,Y,0.0
1503139315.6,286046999.2,P,0.7
1503139335.4,286046996.6,P,1.1
1503139355.3,286046997.4,N,0.9
1503139375.1,286046997.6,N,0.8
1503139376.0,286046997.6,N,0.8
1503139395.8,286046997.6,Y,0.0
1503139415.7,286046999.4,P,0.9
1503139435.5,286046998.4,N,0.7
1503139455.4,286046998.2,N,0.6
1503139475.2,286046998.7,N,0.6
1503139525.0,286046999.0,E,nan
1503139535.9,286046998.7,N,0.0
1503139555.7,286046998.7,P,0.0
1503139575.5,286046998.7,P,0.0
1503139595.4,286046998.6,Y,0.0
1503139615.2,286046998.1,P,0.3
1503139635.1,286046998.6,P,0.3
1503139636.0,286046998.6,P,0.2
1503139655.8,286046998.5,Y,0.0
1503139675.6,286046999.7,P,0.6
1503139695.5,286047002.7,P,1.8
1503139715.3,286047002.6,N,1.8
1503139735.1,286047000.0,N,1.7
1503139755.9,286047000.6,N,1.5
1503139775.7,286046999.9,N,1.4
1503139795.6,286047000.5,N,1.3
1503139815.4,286047000.7,N,1.3
1503139835.2,286047000.0,N,1.2
1503139855.1,286046998.3,N,1.3
1503139856.0,286046998.3,N,1.4
1503139875.8,286046998.2,N,1.4
1503139895.6,286046998.1,N,1.5
1503139915.5,286047000.6,N,1.4
1503139935.3,286046998.1,N,1.4
1503139955.2,286046998.7,N,1.4
1503139975.9,286046999.2,N,1.4
1503139995.7,286046998.3,N,1.4
1503140015.6,286047001.1,N,1.4
1503140035.4,286047000.8,N,1.4
1503140055.2,286046998.1,N,1.4
1503140075.1,286046998.2,N,1.4
1503140076.0,286046998.2,N,1.4
1503140095.8,286046998.5,N,1.4
1503140115.7,286047001.2,N,1.4
1503140135.5,286047000.8,N,1.4
1503140155.3,286046998.8,N,1.4
1503140175.2,286046999.6,N,1.3
1503140195.0,286046998.3,N,1.3
1503140195.9,286046998.3,N,1.3
1503140215.7,286046998.7,N,1.4
1503140235.6,286046998.8,N,1.2
1503140255.4,286046999.0,N,1.1
1503140275.3,286046999.4,N,1.1
1503140295.1,286046998.4,N,1.0
1503140296.0,286046998.4,N,1.0
1503140315.8,286046998.6,N,1.0
1503140335.7,286046996.6,Y,0.0
1503140355.5,286046998.5,P,0.3
1503140375.3,286047000.9,P,1.0
1503140395.2,286046998.6,N,1.0
